User: anonymous   Login
Location: Caltech
(34.1382°N, 118.1253°W)
Time: 21:56:35
(UTC-07:00)
Language:

Iridium 94 - Orbit

View from above orbital plane
View from above orbital plane
View from above satellite
View from above satellite

Ground track
Ground track

The orbit data is extracted from the following two-line orbital elements,

1 27374U 02005C   16273.49786925  .00000238  00000-0  77968-4 0  9993
2 27374  86.4008   4.7102 0002272 118.6920   9.2048 14.34218080778584
Epoch (UTC): 29 September 2016 11:56:55
Eccentricity: 0.0002272
inclination: 86.4008°
perigee height: 776 km
apogee height: 779 km
right ascension of ascending node: 4.7102°
argument of perigee: 118.6920°
revolutions per day: 14.34218080
mean anomaly at epoch: 9.2048°
orbit number at epoch: 77858

The dashed part of the orbit path shows where the satellite is in the earth's shadow,  

DLR